Regional Weather Roundup
Issued by NWS Charleston, WV

Home | Current Version | Previous Version | Graphics & Text | Print | Product List | Glossary On
Versions: 1 2 3 4 5 6 7 8 9 10 11 12 13 14 15 16 17 18 19 20 21 22 23 24 25 26 27
000
ASUS41 KRLX 212110
RWRRLX
West Virginia Regional Weather Roundup
National Weather Service Charleston WV
500 PM EDT MON MAY 21 2018

Note: "fair" indicates few or no clouds below 12,000 feet with no
significant weather and/or obstructions to visibility.

WVZ003-212200-
Northern Panhandle of West Virginia

CITY           SKY/WX    TMP DP  RH WIND       PRES   REMARKS
WHEELING       FAIR      79  62  56 CALM      30.09F
$$

WVZ009-212200-
Northwest West Virginia

CITY           SKY/WX    TMP DP  RH WIND       PRES   REMARKS
PARKERSBURG    LGT RAIN  69  64  84 CALM      30.10S
$$

WVZ006-212200-
Western West Virginia

CITY           SKY/WX    TMP DP  RH WIND       PRES   REMARKS
HUNTINGTON     FAIR      85  69  58 CALM      30.03F
$$

WVZ015-212200-
West Central West Virginia

CITY           SKY/WX    TMP DP  RH WIND       PRES   REMARKS
CHARLESTON     PTSUNNY   75  68  78 NE6       30.06F
$$

WVZ022-031-212200-
North Central West Virginia

CITY           SKY/WX    TMP DP  RH WIND       PRES   REMARKS
CLARKSBURG     FAIR      85  62  46 N6        30.06F
MORGANTOWN     FAIR      84  60  44 VRB6      30.08F
$$

WVZ025-035-042-045-212200-
Southern West Virginia

CITY           SKY/WX    TMP DP  RH WIND       PRES   REMARKS
BECKLEY        RAIN      66  62  87 SE8       30.17F FOG
LOGAN          FAIR      72  63  73 CALM      30.11F
BLUEFIELD      FAIR      69  61  75 VRB3      30.19F
LEWISBURG      TSTM      63  60  91 NE15G21   30.20R VSB 1/2
$$

WVZ047-212200-
Northern Mountains of West Virginia

CITY           SKY/WX    TMP DP  RH WIND       PRES   REMARKS
ELKINS         FAIR      84  59  42 N9        30.10F
$$

WVZ052-212200-
Eastern Panhandle of West Virginia

CITY           SKY/WX    TMP DP  RH WIND       PRES   REMARKS
MARTINSBURG    PTSUNNY   78  62  57 SE7       30.11F
PETERSBURG     FAIR      81  68  63 CALM      30.09F
$$




USA.gov is the U.S. government's official web portal to all federal, state and local government web resources and services.